Simultaneous Nadir Overpasses (SNOs) Predictions

Prediction of SNOs between METOP-B and TERRA Satellite Orbit:

Table of predicted SNOs for the next 14.0 days since TLE Epoch: 12/7/2018
Index Date (METOP-B) Time (METOP-B) Lat,Lon (METOP-B) SZA (METOP-B ) Date (TERRA) Time (TERRA) Lat,Lon (TERRA) SZA (TERRA ) Distance(km) Time Diff (sec)
1 12/10/2018 06:27:47 81.27, 129.72 106.95 12/10/2018 06:28:37 81.27, 129.69 106.97 0.70 50
2 12/10/2018 07:18:26 -81.28, -62.35 72.98 12/10/2018 07:18:03 -81.28, -62.45 73.00 1.72 23
3 12/13/2018 02:02:12 81.27,-163.87 107.14 12/13/2018 02:03:00 81.28,-163.71 107.18 2.76 48
4 12/13/2018 02:52:52 -81.28, 3.71 72.83 12/13/2018 02:52:27 -81.27, 3.82 72.83 1.98 25
5 12/15/2018 21:36:37 81.27, -97.47 107.27 12/15/2018 21:37:28 81.28, -97.35 107.30 2.11 51
6 12/15/2018 22:27:17 -81.28, 70.14 72.70 12/15/2018 22:26:55 -81.28, 70.24 72.71 1.65 22
7 12/18/2018 17:11:02 81.27, -31.10 107.33 12/18/2018 17:12:01 81.26, -31.24 107.33 2.55 59
8 12/18/2018 18:01:41 -81.28, 136.94 72.59 12/18/2018 18:01:27 -81.29, 136.78 72.62 2.67 14
9 12/21/2018 12:45:26 81.27, 35.25 107.32 12/21/2018 12:46:36 81.28, 35.39 107.37 2.41 70




NCC Satellite Simultaneous Nadir Overpasses (SNOs) Prediction Service
